Flag for Canada Weather past 2 weeks in Waterloo, Ontario, Canada

Now
68 °F

Sunny.


Feels Like: 68 °F
Forecast: 46 / 72 °F
Wind: 7 mph from Southeast

Location: Waterloo Well

Current Time: Aug 29, 2014 at 12:29:50 PM

Latest Report: Aug 29, 2014 at 12:00 PM


Visibility: 9 mi

Pressure: 30.18 "Hg

Humidity: 60%

Dew point: 54 °F

Location of WaterlooLocation

Historic Weather in Waterloo — Graph

°F

Waterloo temperature yesterday

Maximum temperature yesterday: 70 °F (at 2:00 PM)
Minimum temperature yesterday: 48 °F (at 3:00 AM)
Average temperature yesterday: 58 °F

Past Weeks' High & Low Weather Summary

 TemperatureHumidityPressure
High84 °F (Aug 26, 2:00 PM)100% (Aug 17, 5:00 AM)30.20 "Hg (Aug 17, 5:00 AM)
Low45 °F (Aug 19, 5:03 AM)45% (Aug 25, 3:00 PM)29.82 "Hg (Aug 16, 5:50 PM)
Average63 °F82%30.00 "Hg
* Reported Aug 14 11:00 AM — Aug 29 11:00 AM, Waterloo, Weather by CustomWeather, © 2014

Note: Actual official high and low records may vary slightly from our data, if they occured in-between our weather recording intervals... More about our weather records

Advertising

Waterloo weather history for previous 24 hours

 ConditionsComfort  
Time TempWeatherWind HumidityBarometerVisibility
11:00 AM
Aug 29
66 °FSunny.10 mph68%30.19 "Hg9 mi
10:00 AM63 °FSunny.9 mph77%30.20 "Hg9 mi
9:00 AM55 °FSunny.3 mph88%30.20 "Hg9 mi
8:00 AM52 °FPartly sunny.No wind94%30.20 "Hg9 mi
7:00 AM48 °FOvercast.2 mph100%30.19 "Hg9 mi
6:00 AM46 °FOvercast.2 mph100%30.17 "Hg9 mi
5:00 AM48 °FFog.No wind94%30.17 "Hg2 mi
4:51 AM48 °FFog.No wind94%30.16 "Hg1 mi
4:00 AM50 °FClear.No wind94%30.16 "Hg9 mi
3:00 AM48 °FFog.3 mph94%30.18 "Hg5 mi
2:56 AM46 °FFog.3 mph100%30.18 "Hg5 mi
2:04 AM50 °FClear.No wind94%30.17 "Hg9 mi
1:53 AM48 °FFog.2 mph94%30.17 "Hg2 mi
1:00 AM52 °FClear.No wind94%30.18 "Hg9 mi
12:00 AM52 °FClear.3 mph94%30.16 "Hg9 mi
11:00 PM
Aug 28
50 °FClear.3 mph94%30.16 "Hg9 mi
10:00 PM55 °FClear.6 mph82%30.15 "Hg9 mi
9:00 PM57 °FSunny.5 mph77%30.14 "Hg9 mi
8:00 PM61 °FSunny.6 mph68%30.11 "Hg9 mi
7:00 PM66 °FSunny.7 mph56%30.11 "Hg9 mi
6:00 PM70 °FScattered clouds.10 mph53%30.11 "Hg9 mi
5:00 PM68 °FSunny.12 mph49%30.11 "Hg9 mi
4:00 PM70 °FScattered clouds.10 mph50%30.11 "Hg9 mi
3:00 PM68 °FPartly sunny.12 mph53%30.12 "Hg9 mi
2:00 PM70 °FScattered clouds.9 mph50%30.13 "Hg9 mi
1:00 PM66 °FScattered clouds.9 mph52%30.13 "Hg9 mi
12:00 PM66 °FScattered clouds.10 mph60%30.14 "Hg9 mi
Weather by CustomWeather, © 2014

See weather overviewHow to use our weather pages